GW3221 Weather Reports


Display with metric or nautical units.
time (UTC)temp
F
wind
direction
speed
MPH
gust
MPH
rain 1hr
in
rain 24hr
in
rain mn
in
humidity
%
barometer
mb
20260506221551 68 0 0.0 2.0 0.00 0.13 0.13 76 1008.3
20260506220045 68 346 0.0 5.0 0.00 0.13 0.13 76 1008.2
20260506214539 67 141 0.0 7.0 0.00 0.13 0.13 75 1008.1
20260506213043 66 301 0.0 3.0 0.00 0.13 0.13 75 1007.9
20260506211544 66 274 0.0 3.0 0.00 0.13 0.13 75 1007.9
20260506210044 67 162 1.0 6.0 0.00 0.13 0.13 75 1007.9
20260506204539 67 214 1.0 7.0 0.00 0.13 0.13 74 1007.7
20260506203040 65 98 1.0 4.0 0.00 0.13 0.13 72 1007.6
20260506201540 64 20 2.0 5.0 0.00 0.13 0.13 71 1007.7
20260506200037 64 18 0.0 4.0 0.00 0.13 0.13 68 1007.8
20260506194544 64 42 1.0 4.0 0.00 0.13 0.13 66 1007.8
20260506193048 63 281 1.0 5.0 0.00 0.13 0.13 65 1008.1
20260506191539 63 302 1.0 6.0 0.00 0.13 0.13 61 1008.2
20260506190038 62 288 1.0 4.0 0.00 0.13 0.13 57 1008.3
20260506184539 63 330 1.0 6.0 0.00 0.13 0.13 63 1008.4
20260506183040 63 174 1.0 9.0 0.00 0.13 0.13 64 1008.3
20260506181548 62 234 0.0 3.0 0.00 0.13 0.13 63 1008.4
20260506180038 62 0 2.0 5.0 0.00 0.13 0.13 61 1008.6
20260506174538 63 184 2.0 9.0 0.01 0.13 0.13 62 1008.7
20260506173102 63 165 1.0 9.0 0.01 0.13 0.13 61 1009.0
20260506171543 64 119 1.0 5.0 0.02 0.13 0.13 61 1009.0
20260506170056 64 143 1.0 6.0 0.05 0.13 0.13 57 1008.7
20260506164537 64 126 1.0 6.0 0.06 0.12 0.12 50 1009.1
20260506163048 63 153 1.0 3.0 0.08 0.12 0.12 51 1009.0
20260506161544 62 138 1.0 6.0 0.09 0.11 0.11 54 1009.9
20260506160043 62 108 0.0 3.0 0.07 0.08 0.08 60 1010.2
20260506154600 62 300 0.0 3.0 0.06 0.06 0.06 67 1010.2
20260506153037 64 158 1.0 6.0 0.04 0.04 0.04 73 1010.4
20260506151537 64 134 0.0 3.0 0.02 0.02 0.02 74 1010.2
20260506150037 64 149 0.0 4.0 0.01 0.01 0.01 76 1010.0
20260506144544 65 68 1.0 6.0 0.00 0.00 0.00 76 1010.2
20260506143038 66 83 3.0 9.0 0.00 0.00 0.00 73 1010.3
20260506141537 68 289 2.0 7.0 0.00 0.00 0.00 71 1010.2
20260506140037 69 126 3.0 9.0 0.00 0.00 0.00 71 1009.9
20260506134535 67 187 3.0 7.0 0.00 0.00 0.00 73 1010.0
20260506133054 67 191 2.0 7.0 0.00 0.00 0.00 74 1010.0
20260506131539 67 140 1.0 5.0 0.00 0.00 0.00 74 1010.0
20260506130040 67 148 2.0 5.0 0.00 0.00 0.00 73 1010.2
20260506124536 66 25 2.0 9.0 0.00 0.00 0.00 75 1010.1
20260506123036 65 148 1.0 4.0 0.00 0.00 0.00 75 1010.1
20260506121540 65 157 1.0 6.0 0.00 0.00 0.00 75 1009.9
20260506120039 64 246 2.0 8.0 0.00 0.00 0.00 76 1010.1
20260506114540 64 135 2.0 7.0 0.00 0.00 0.00 76 1010.2
20260506113037 64 174 2.0 11.0 0.00 0.00 0.00 76 1010.2
20260506111536 64 190 2.0 8.0 0.00 0.00 0.00 76 1010.2
20260506110044 64 159 2.0 10.0 0.00 0.00 0.00 76 1010.1
20260506104605 64 123 2.0 8.0 0.00 0.00 0.00 76 1009.9
20260506103041 64 198 2.0 9.0 0.00 0.00 0.00 76 1009.8
20260506101541 63 206 2.0 8.0 0.00 0.00 0.00 76 1009.8
20260506100042 63 185 2.0 5.0 0.00 0.00 0.00 76 1009.9
20260506094538 64 196 1.0 10.0 0.00 0.00 0.00 76 1009.8
20260506093040 64 27 2.0 9.0 0.00 0.00 0.00 76 1009.7
20260506091539 64 271 2.0 6.0 0.00 0.00 0.00 76 1009.9
20260506090044 64 162 2.0 7.0 0.00 0.00 0.00 76 1009.9
20260506084538 64 120 2.0 5.0 0.00 0.00 0.00 76 1009.9
20260506083041 64 6 2.0 7.0 0.00 0.00 0.00 76 1010.0
20260506081542 64 111 2.0 6.0 0.00 0.00 0.00 76 1010.0
20260506073038 65 205 2.0 6.0 0.00 0.00 0.00 76 1010.0
20260506071537 65 90 1.0 5.0 0.00 0.00 0.00 76 1010.1
20260506061537 66 110 2.0 7.0 0.00 0.00 0.00 74 1010.6
20260506044538 66 146 1.0 7.0 0.00 0.00 0.00 70 1011.2
20260506043047 67 129 1.0 5.0 0.00 0.00 0.00 69 1011.1
20260506041544 67 179 1.0 5.0 0.00 0.00 0.00 68 1011.0
20260506040047 67 204 1.0 5.0 0.00 0.00 0.00 67 1011.0
20260506034537 68 117 2.0 5.0 0.00 0.00 0.00 66 1010.9
20260506033036 68 159 2.0 7.0 0.00 0.00 0.00 65 1010.8
20260506031541 68 127 1.0 6.0 0.00 0.00 0.00 65 1010.7
20260506030040 68 221 2.0 6.0 0.00 0.00 0.00 64 1010.9
20260506024544 68 301 2.0 6.0 0.00 0.00 0.00 64 1010.9
20260506023036 69 173 2.0 9.0 0.00 0.00 0.00 63 1011.0
20260506021549 70 193 2.0 9.0 0.00 0.00 0.00 61 1010.9
20260506020038 70 119 3.0 11.0 0.00 0.00 0.00 59 1010.9
20260506014537 71 217 1.0 7.0 0.00 0.00 0.00 56 1010.9
20260506013041 72 132 2.0 7.0 0.00 0.00 0.00 52 1010.7
20260506011545 73 170 2.0 8.0 0.00 0.00 0.00 50 1010.6
20260506010047 73 178 2.0 6.0 0.00 0.00 0.00 48 1010.4
20260506004538 74 169 2.0 7.0 0.00 0.00 0.00 47 1010.3
20260506003037 74 26 2.0 5.0 0.00 0.00 0.00 47 1010.1
20260506001536 74 219 2.0 6.0 0.00 0.00 0.00 48 1010.0
20260506000042 75 195 1.0 6.0 0.00 0.00 0.00 48 1009.9
20260505234603 75 63 1.0 7.0 0.00 0.00 0.00 47 1009.8
20260505233038 76 115 1.0 6.0 0.00 0.00 0.00 46 1009.8
20260505231537 77 263 3.0 9.0 0.00 0.00 0.00 45 1009.6
20260505230042 77 315 3.0 8.0 0.00 0.00 0.00 41 1009.4
20260505224539 79 223 3.0 10.0 0.00 0.00 0.00 39 1009.4
20260505223037 79 139 2.0 7.0 0.00 0.00 0.00 39 1009.2